Content
SEND FEEDBACK

Daily
Averages
Monthly
Summary
United States of America

RAPID CITY, SOUTH DAKOTA


Home > North America > United States > South Dakota
Elevation: 3162 feet     Latitude: 44 03N     Longitude: 103 04W

WEATHER
 
SELECT A DAY
Number of Records: 200,194;   Date Range: 1/1/95 - 7/20/14
 
SHARE

PRINT THIS DATA

[ ← Previous Day ]
WEATHER ALMANAC - APRIL 10, 2013
[ Next Day → ]
[ °C ]   °F
Weather ElementAverageHighLow
Temperature20.6 °F25 °F (2:52 pm)17.1 °F (12:52 am)
Dewpoint16.2 °F19.4 °F (1:05 pm)10.9 °F (9:52 pm)
Humidity83.4 %93 % (2:36 am)71 % (5:52 pm)
Barometer30.22 in30.40 in (12:52 am)30.05 in (11:52 pm)
Wind Speed18.4 mph24.2 mph (12:27 am)
Wind Gust32.2 mph (5:19 am)
Weather ElementAverage
Visibility3.4 mi
Wind DirectionNNW (342.6 °)

Weather ElementTotal
Precipitation0.43 in
Heating Degree Days44 (Base 65)
Averaged from 54 records on April 10, 2013
WEATHER CONDITIONS BREAKOUT
WIND DIRECTION BREAKOUT
WEATHER BY HOUR - APRIL 10, 2013
[ °C ]   °F
Local TimeTemperatureDewpointHumidityBarometerVisibilityWind DirectionWind SpeedGust SpeedPrecipitationEventsConditions
12:27 AM17.6 °F14.0 °F86 %30.21 in0.8 miNNW (330°)24.2 mph0.02 inSnowLight Snow
12:36 AM17.6 °F14.0 °F86 %30.21 in1.2 miNNW (330°)24.2 mph29.9 mph0.02 inSnowLight Snow
12:52 AM17.1 °F14.0 °F88 %30.40 in1.8 miNNW (330°)21.9 mph0.02 inSnowLight Snow
1:01 AM17.6 °F14.0 °F86 %30.23 in2.5 miNNW (330°)18.4 mph0.00 inSnowLight Snow
1:10 AM17.6 °F14.0 °F86 %30.23 in1.8 miNNW (330°)20.7 mph0.00 inSnowLight Snow
1:40 AM17.6 °F14.0 °F86 %30.23 in1.0 miNNW (330°)17.3 mph0.02 inSnowLight Snow
1:52 AM18.0 °F15.1 °F88 %30.40 in1.0 miNNW (330°)17.3 mph0.03 inSnowLight Snow
2:36 AM17.6 °F15.8 °F93 %30.19 in1.5 miNNW (330°)18.4 mph0.02 inSnowLight Snow
2:45 AM17.6 °F15.8 °F93 %30.19 in2.5 miNNW (330°)18.4 mph0.02 inSnowLight Snow
2:52 AM18.0 °F15.1 °F88 %30.36 in4.0 miNNW (330°)19.6 mph0.02 inSnowLight Snow
3:52 AM19.0 °F15.1 °F85 %30.35 in10.0 miNNW (330°)17.3 mph0.00 inSnowLight Snow
4:35 AM19.4 °F15.8 °F86 %30.18 in2.5 miNNW (340°)18.4 mph0.00 inSnowLight Snow
4:48 AM19.4 °F15.8 °F86 %30.17 in1.5 miNNW (330°)23.0 mph0.01 inSnowLight Snow
4:52 AM19.0 °F15.1 °F85 %30.34 in1.2 miNNW (330°)23.0 mph0.01 inSnowLight Snow
5:12 AM19.4 °F15.8 °F86 %30.17 in1.0 miNNW (330°)21.9 mph0.00 inSnowLight Snow
5:19 AM19.4 °F15.8 °F86 %30.18 in0.8 miNNW (340°)20.7 mph32.2 mph0.01 inSnowLight Snow
5:38 AM19.4 °F15.8 °F86 %30.19 in1.2 miNNW (340°)21.9 mph0.01 inSnowLight Snow
5:49 AM19.4 °F15.8 °F86 %30.19 in0.8 miNNW (340°)19.6 mph0.02 inSnowLight Snow
5:52 AM19.0 °F15.1 °F85 %30.35 in0.8 miNNW (340°)18.4 mph0.02 inSnowLight Snow
6:05 AM19.4 °F15.8 °F86 %30.19 in0.8 miNNW (340°)16.1 mph0.01 inSnowLight Snow
6:52 AM19.0 °F16.0 °F88 %30.35 in0.5 miNNW (340°)18.4 mph0.05 inFog-SnowSnow
7:24 AM19.4 °F15.8 °F86 %30.19 in0.2 miNNW (340°)18.4 mph0.02 inFog-SnowHeavy Snow
7:40 AM19.4 °F15.8 °F86 %30.18 in0.5 miNNW (340°)21.9 mph0.02 inFog-SnowSnow
7:52 AM19.9 °F17.1 °F89 %30.34 in0.5 miNNW (340°)23.0 mph0.03 inFog-SnowSnow
8:18 AM19.4 °F17.6 °F93 %30.18 in0.8 miNorth (350°)23.0 mph0.01 inSnowLight Snow
8:30 AM19.4 °F17.6 °F93 %30.18 in0.8 miNorth (360°)24.2 mph0.01 inSnowLight Snow
8:52 AM19.9 °F16.0 °F85 %30.35 in0.8 miNorth (360°)21.9 mph27.6 mph0.01 inSnowLight Snow
9:11 AM19.4 °F15.8 °F86 %30.18 in1.0 miNorth (360°)18.4 mph0.00 inSnowLight Snow
9:35 AM21.2 °F17.6 °F86 %30.17 in1.2 miNorth (360°)17.3 mph0.01 inSnowLight Snow
9:52 AM21.0 °F16.0 °F81 %30.34 in1.8 miNorth (360°)19.6 mph0.01 inSnowLight Snow
10:11 AM21.2 °F17.6 °F86 %30.18 in1.2 miNorth (350°)19.6 mph0.00 inSnowLight Snow
10:39 AM21.2 °F17.6 °F86 %30.18 in1.8 miNorth (360°)20.7 mph0.00 inSnowLight Snow
10:52 AM21.0 °F17.1 °F85 %30.33 in1.2 miNorth (360°)19.6 mph0.00 inSnowLight Snow
11:21 AM21.2 °F17.6 °F86 %30.17 in1.5 miNorth (350°)20.7 mph0.00 inSnowLight Snow
11:40 AM21.2 °F17.6 °F86 %30.16 in2.0 miNNW (340°)19.6 mph0.00 inSnowLight Snow
11:49 AM23.0 °F17.6 °F80 %30.16 in1.8 miNorth (350°)20.7 mph0.00 inSnowLight Snow
11:52 AM23.0 °F17.1 °F78 %30.31 in2.0 miNorth (350°)19.6 mph0.00 inSnowLight Snow
12:11 PM23.0 °F17.6 °F80 %30.15 in3.0 miNorth (350°)18.4 mph0.00 inSnowLight Snow
12:14 PM23.0 °F17.6 °F80 %30.15 in2.5 miNorth (360°)18.4 mph0.00 inSnowLight Snow
12:27 PM23.0 °F17.6 °F80 %30.14 in4.0 miNorth (360°)18.4 mph0.00 inSnowLight Snow
12:52 PM24.1 °F18.0 °F77 %30.29 in4.0 miNorth (360°)17.3 mph0.00 inSnowLight Snow
1:05 PM24.8 °F19.4 °F80 %30.13 in5.0 miNorth (360°)18.4 mph0.00 inSnowLight Snow
1:17 PM24.8 °F19.4 °F80 %30.13 in6.0 miNorth (360°)16.1 mph0.00 inSnowLight Snow
1:52 PM24.1 °F18.0 °F77 %30.27 in7.0 miNorth (360°)17.3 mph0.00 inSnowLight Snow
2:52 PM25.0 °F19.0 °F78 %30.23 in10.0 miNorth (360°)17.3 mph0.00 inOvercast
3:52 PM25.0 °F19.0 °F78 %30.21 in5.0 miNorth (360°)18.4 mph0.00 inSnowLight Snow
4:52 PM25.0 °F18.0 °F75 %30.18 in9.0 miNorth (360°)17.3 mph0.00 inSnowLight Snow
5:52 PM24.1 °F16.0 °F71 %30.15 in10.0 miNorth (350°)13.8 mph0.00 inOvercast
6:52 PM23.0 °F16.0 °F74 %30.15 in10.0 miNNW (340°)13.8 mphMostly Cloudy
7:52 PM21.9 °F15.1 °F75 %30.13 in10.0 miNNW (330°)9.2 mphOvercast
8:52 PM21.9 °F15.1 °F75 %30.13 in10.0 miNNW (340°)9.2 mphOvercast
9:52 PM18.0 °F10.9 °F74 %30.12 in10.0 miNW (320°)9.2 mphOvercast
10:52 PM19.9 °F12.9 °F74 %30.09 in10.0 miWNW (300°)5.8 mphOvercast
11:52 PM21.0 °F15.1 °F78 %30.05 in10.0 miWNW (300°)5.8 mphOvercast
Hourly data recorded from KRAP, located miles away from Rapid City, South Dakota







STORIES FROM OUR PARTNERS